Time,TemperatureF,DewpointF,PressureIn,WindDirection,WindDirectionDegrees,WindSpeedMPH,WindSpeedGustMPH,Humidity,HourlyPrecipIn,Conditions,Clouds,dailyrainin,SoftwareType,DateUTC
2013-05-11 00:00:00,63.4,38.0,30.33,SE,127,1.0,1.0,39,0.00,,,0.00,Wunderground v.1.15,2013-05-11 07:00:00,
2013-05-11 00:05:00,63.1,37.7,30.33,SE,127,1.0,4.0,39,0.00,,,0.00,Wunderground v.1.15,2013-05-11 07:05:00,
2013-05-11 00:15:00,63.8,37.0,30.33,SE,127,0.0,4.0,37,0.00,,,0.00,Wunderground v.1.15,2013-05-11 07:15:00,
2013-05-11 00:20:00,63.9,37.1,30.33,SE,127,0.0,4.0,37,0.00,,,0.00,Wunderground v.1.15,2013-05-11 07:20:00,
2013-05-11 00:25:00,63.6,38.2,30.33,SE,127,0.0,4.0,39,0.00,,,0.00,Wunderground v.1.15,2013-05-11 07:25:00,
2013-05-11 00:35:00,62.6,38.6,30.33,SE,127,0.0,4.0,41,0.00,,,0.00,Wunderground v.1.15,2013-05-11 07:35:00,
2013-05-11 00:45:00,62.3,37.7,30.33,SE,127,0.0,0.0,40,0.00,,,0.00,Wunderground v.1.15,2013-05-11 07:45:00,
2013-05-11 00:50:00,62.5,37.8,30.33,SE,127,0.0,0.0,40,0.00,,,0.00,Wunderground v.1.15,2013-05-11 07:50:00,
2013-05-11 01:00:00,61.8,37.2,30.33,SE,127,0.0,0.0,40,0.00,,,0.00,Wunderground v.1.15,2013-05-11 08:00:00,
2013-05-11 01:05:00,62.2,37.6,30.33,SE,127,0.0,4.0,40,0.00,,,0.00,Wunderground v.1.15,2013-05-11 08:05:00,
2013-05-11 01:15:00,61.9,37.3,30.33,SE,127,0.0,4.0,40,0.00,,,0.00,Wunderground v.1.15,2013-05-11 08:15:00,
2013-05-11 01:20:00,62.4,36.4,30.33,SSE,167,1.0,4.0,38,0.00,,,0.00,Wunderground v.1.15,2013-05-11 08:20:00,
2013-05-11 01:25:00,63.2,36.5,30.33,SSW,204,2.0,4.0,37,0.00,,,0.00,Wunderground v.1.15,2013-05-11 08:25:00,
2013-05-11 01:30:00,63.6,36.1,30.33,SSW,204,1.0,4.0,36,0.00,,,0.00,Wunderground v.1.15,2013-05-11 08:30:00,
2013-05-11 01:40:00,63.8,35.6,30.33,WSW,237,2.0,2.0,35,0.00,,,0.00,Wunderground v.1.15,2013-05-11 08:40:00,
2013-05-11 01:50:00,64.0,35.0,30.33,WSW,252,2.0,2.0,34,0.00,,,0.00,Wunderground v.1.15,2013-05-11 08:50:00,
2013-05-11 02:00:00,64.0,35.0,30.33,WSW,252,0.0,4.0,34,0.00,,,0.00,Wunderground v.1.15,2013-05-11 09:00:00,
2013-05-11 02:05:00,64.0,35.0,30.33,WSW,252,0.0,5.0,34,0.00,,,0.00,Wunderground v.1.15,2013-05-11 09:05:00,
2013-05-11 02:10:00,63.9,35.0,30.33,West,267,1.0,5.0,34,0.00,,,0.00,Wunderground v.1.15,2013-05-11 09:10:00,
2013-05-11 02:15:00,63.8,34.9,30.33,West,268,1.0,5.0,34,0.00,,,0.00,Wunderground v.1.15,2013-05-11 09:15:00,
2013-05-11 02:20:00,63.5,34.6,30.33,West,268,1.0,1.0,34,0.00,,,0.00,Wunderground v.1.15,2013-05-11 09:20:00,
2013-05-11 02:30:00,63.7,34.0,30.33,West,268,0.0,5.0,33,0.00,,,0.00,Wunderground v.1.15,2013-05-11 09:30:00,
2013-05-11 02:35:00,63.9,34.2,30.33,West,268,0.0,8.0,33,0.00,,,0.00,Wunderground v.1.15,2013-05-11 09:35:00,
2013-05-11 02:45:00,64.5,34.0,30.33,West,268,1.0,8.0,32,0.00,,,0.00,Wunderground v.1.15,2013-05-11 09:45:00,
2013-05-11 02:50:00,64.5,34.0,30.33,West,268,1.0,1.0,32,0.00,,,0.00,Wunderground v.1.15,2013-05-11 09:50:00,
2013-05-11 03:00:00,64.7,34.1,30.33,West,268,1.0,1.0,32,0.00,,,0.00,Wunderground v.1.15,2013-05-11 10:00:00,
2013-05-11 03:05:00,64.8,33.4,30.33,West,268,1.0,3.0,31,0.00,,,0.00,Wunderground v.1.15,2013-05-11 10:05:00,
2013-05-11 03:15:00,64.6,34.1,30.33,West,268,0.0,5.0,32,0.00,,,0.00,Wunderground v.1.15,2013-05-11 10:15:00,
2013-05-11 03:20:00,64.3,34.6,30.33,West,268,0.0,5.0,33,0.00,,,0.00,Wunderground v.1.15,2013-05-11 10:20:00,
2013-05-11 03:30:00,63.8,34.9,30.33,West,268,0.0,5.0,34,0.00,,,0.00,Wunderground v.1.15,2013-05-11 10:30:00,
2013-05-11 03:35:00,64.0,34.3,30.33,West,268,0.0,5.0,33,0.00,,,0.00,Wunderground v.1.15,2013-05-11 10:35:00,
2013-05-11 03:45:00,64.3,34.6,30.33,West,268,2.0,4.0,33,0.00,,,0.00,Wunderground v.1.15,2013-05-11 10:45:00,
2013-05-11 03:50:00,64.3,34.6,30.32,West,268,1.0,4.0,33,0.00,,,0.00,Wunderground v.1.15,2013-05-11 10:50:00,
2013-05-11 04:00:00,64.2,34.5,30.33,West,268,2.0,2.0,33,0.00,,,0.00,Wunderground v.1.15,2013-05-11 11:00:00,
2013-05-11 04:05:00,64.1,35.1,30.33,West,268,1.0,6.0,34,0.00,,,0.00,Wunderground v.1.15,2013-05-11 11:05:00,
2013-05-11 04:15:00,64.0,35.0,30.33,West,268,1.0,6.0,34,0.00,,,0.00,Wunderground v.1.15,2013-05-11 11:15:00,
2013-05-11 04:20:00,64.0,35.0,30.33,West,268,1.0,1.0,34,0.00,,,0.00,Wunderground v.1.15,2013-05-11 11:20:00,
2013-05-11 04:30:00,63.9,35.0,30.33,West,268,1.0,1.0,34,0.00,,,0.00,Wunderground v.1.15,2013-05-11 11:30:00,
2013-05-11 04:35:00,63.9,35.7,30.33,West,268,1.0,6.0,35,0.00,,,0.00,Wunderground v.1.15,2013-05-11 11:35:00,
2013-05-11 04:45:00,63.9,35.7,30.32,West,268,0.0,6.0,35,0.00,,,0.00,Wunderground v.1.15,2013-05-11 11:45:00,
2013-05-11 04:50:00,63.9,35.7,30.32,West,268,0.0,6.0,35,0.00,,,0.00,Wunderground v.1.15,2013-05-11 11:50:00,
2013-05-11 04:55:00,63.9,35.7,30.32,West,268,0.0,6.0,35,0.00,,,0.00,Wunderground v.1.15,2013-05-11 11:55:00,
2013-05-11 05:05:00,63.8,35.6,30.32,West,268,0.0,6.0,35,0.00,,,0.00,Wunderground v.1.15,2013-05-11 12:05:00,
2013-05-11 05:10:00,63.8,35.6,30.32,West,268,0.0,4.0,35,0.00,,,0.00,Wunderground v.1.15,2013-05-11 12:10:00,
2013-05-11 05:15:00,63.8,35.6,30.32,West,268,0.0,4.0,35,0.00,,,0.00,Wunderground v.1.15,2013-05-11 12:15:00,
2013-05-11 05:25:00,63.5,36.0,30.32,West,268,0.0,4.0,36,0.00,,,0.00,Wunderground v.1.15,2013-05-11 12:25:00,
2013-05-11 05:30:00,63.2,36.5,30.32,West,268,0.0,4.0,37,0.00,,,0.00,Wunderground v.1.15,2013-05-11 12:30:00,
2013-05-11 05:35:00,62.9,36.2,30.32,West,268,1.0,4.0,37,0.00,,,0.00,Wunderground v.1.15,2013-05-11 12:35:00,
2013-05-11 05:45:00,62.9,36.2,30.33,West,268,0.0,4.0,37,0.00,,,0.00,Wunderground v.1.15,2013-05-11 12:45:00,
2013-05-11 05:50:00,62.9,36.2,30.33,West,268,0.0,4.0,37,0.00,,,0.00,Wunderground v.1.15,2013-05-11 12:50:00,
2013-05-11 06:00:00,63.0,36.3,30.33,West,268,0.0,4.0,37,0.00,,,0.00,Wunderground v.1.15,2013-05-11 13:00:00,
2013-05-11 06:05:00,63.2,36.5,30.33,West,268,1.0,4.0,37,0.00,,,0.00,Wunderground v.1.15,2013-05-11 13:05:00,
2013-05-11 06:10:00,63.6,36.8,30.33,West,268,1.0,1.0,37,0.00,,,0.00,Wunderground v.1.15,2013-05-11 13:10:00,
2013-05-11 06:15:00,63.7,36.9,30.33,West,268,0.0,4.0,37,0.00,,,0.00,Wunderground v.1.15,2013-05-11 13:15:00,
2013-05-11 06:25:00,64.4,36.8,30.33,West,268,1.0,4.0,36,0.00,,,0.00,Wunderground v.1.15,2013-05-11 13:25:00,
2013-05-11 06:30:00,64.8,37.2,30.34,West,268,1.0,1.0,36,0.00,,,0.00,Wunderground v.1.15,2013-05-11 13:30:00,
2013-05-11 06:35:00,65.5,37.1,30.34,West,268,0.0,5.0,35,0.00,,,0.00,Wunderground v.1.15,2013-05-11 13:35:00,
2013-05-11 06:45:00,66.5,37.2,30.34,West,268,0.0,5.0,34,0.00,,,0.00,Wunderground v.1.15,2013-05-11 13:45:00,
2013-05-11 06:50:00,67.1,37.8,30.35,West,268,0.0,5.0,34,0.00,,,0.00,Wunderground v.1.15,2013-05-11 13:50:00,
2013-05-11 06:55:00,67.8,37.6,30.34,West,268,0.0,5.0,33,0.00,,,0.00,Wunderground v.1.15,2013-05-11 13:55:00,
2013-05-11 07:05:00,69.6,39.2,30.35,West,268,0.0,5.0,33,0.00,,,0.00,Wunderground v.1.15,2013-05-11 14:05:00,
2013-05-11 07:10:00,70.2,38.1,30.35,West,268,0.0,4.0,31,0.00,,,0.00,Wunderground v.1.15,2013-05-11 14:10:00,
2013-05-11 07:20:00,71.7,36.8,30.35,West,266,0.0,4.0,28,0.00,,,0.00,Wunderground v.1.15,2013-05-11 14:20:00,
2013-05-11 07:30:00,72.0,36.2,30.35,West,260,1.0,1.0,27,0.00,,,0.00,Wunderground v.1.15,2013-05-11 14:30:00,
2013-05-11 07:35:00,72.2,36.3,30.35,West,260,0.0,4.0,27,0.00,,,0.00,Wunderground v.1.15,2013-05-11 14:35:00,
2013-05-11 07:40:00,72.3,36.4,30.35,SW,223,1.0,4.0,27,0.00,,,0.00,Wunderground v.1.15,2013-05-11 14:40:00,
2013-05-11 07:50:00,72.6,36.7,30.35,South,187,2.0,2.0,27,0.00,,,0.00,Wunderground v.1.15,2013-05-11 14:50:00,
2013-05-11 08:00:00,73.0,36.1,30.35,SE,141,2.0,4.0,26,0.00,,,0.00,Wunderground v.1.15,2013-05-11 15:00:00,
2013-05-11 08:05:00,73.2,36.2,30.35,SE,142,3.0,9.0,26,0.00,,,0.00,Wunderground v.1.15,2013-05-11 15:05:00,
2013-05-11 08:15:00,73.5,36.5,30.35,SE,142,4.0,9.0,26,0.00,,,0.00,Wunderground v.1.15,2013-05-11 15:15:00,
2013-05-11 08:20:00,73.9,36.8,30.36,SE,142,3.0,3.0,26,0.00,,,0.00,Wunderground v.1.15,2013-05-11 15:20:00,
2013-05-11 08:30:00,74.0,35.9,30.36,SE,135,3.0,9.0,25,0.00,,,0.00,Wunderground v.1.15,2013-05-11 15:30:00,
2013-05-11 08:35:00,74.4,35.2,30.36,SE,136,4.0,9.0,24,0.00,,,0.00,Wunderground v.1.15,2013-05-11 15:35:00,
2013-05-11 08:40:00,74.4,35.2,30.36,SE,138,4.0,4.0,24,0.00,,,0.00,Wunderground v.1.15,2013-05-11 15:40:00,
2013-05-11 08:45:00,74.6,35.4,30.36,SSE,152,4.0,9.0,24,0.00,,,0.00,Wunderground v.1.15,2013-05-11 15:45:00,
2013-05-11 08:50:00,74.8,34.5,30.36,SSE,152,3.0,9.0,23,0.00,,,0.00,Wunderground v.1.15,2013-05-11 15:50:00,
2013-05-11 09:00:00,75.1,35.8,30.36,SSE,163,4.0,9.0,24,0.00,,,0.00,Wunderground v.1.15,2013-05-11 16:00:00,
2013-05-11 09:05:00,75.3,34.9,30.36,South,186,5.0,11.0,23,0.00,,,0.00,Wunderground v.1.15,2013-05-11 16:05:00,
2013-05-11 09:15:00,75.5,35.1,30.36,ESE,115,3.0,5.0,23,0.00,,,0.00,Wunderground v.1.15,2013-05-11 16:15:00,
2013-05-11 09:20:00,75.8,34.2,30.36,SSE,152,5.0,5.0,22,0.00,,,0.00,Wunderground v.1.15,2013-05-11 16:20:00,
2013-05-11 09:30:00,75.9,35.4,30.36,SSE,148,4.0,11.0,23,0.00,,,0.00,Wunderground v.1.15,2013-05-11 16:30:00,
2013-05-11 09:35:00,76.1,34.5,30.36,SSE,153,3.0,12.0,22,0.00,,,0.00,Wunderground v.1.15,2013-05-11 16:35:00,
2013-05-11 09:40:00,76.4,34.7,30.36,SSE,155,5.0,5.0,22,0.00,,,0.00,Wunderground v.1.15,2013-05-11 16:40:00,
2013-05-11 09:50:00,76.1,34.5,30.36,SSE,150,5.0,12.0,22,0.00,,,0.00,Wunderground v.1.15,2013-05-11 16:50:00,
2013-05-11 10:00:00,76.8,35.1,30.36,SE,135,4.0,12.0,22,0.00,,,0.00,Wunderground v.1.15,2013-05-11 17:00:00,
2013-05-11 10:05:00,76.9,35.1,30.36,SE,142,5.0,14.0,22,0.00,,,0.00,Wunderground v.1.15,2013-05-11 17:05:00,
2013-05-11 10:15:00,77.2,35.4,30.37,SSE,165,5.0,14.0,22,0.00,,,0.00,Wunderground v.1.15,2013-05-11 17:15:00,
2013-05-11 10:20:00,77.5,34.5,30.36,SE,142,5.0,5.0,21,0.00,,,0.00,Wunderground v.1.15,2013-05-11 17:20:00,
2013-05-11 10:25:00,76.9,34.0,30.37,SE,146,3.0,14.0,21,0.00,,,0.00,Wunderground v.1.15,2013-05-11 17:25:00,
2013-05-11 10:30:00,77.6,34.6,30.37,South,177,4.0,4.0,21,0.00,,,0.00,Wunderground v.1.15,2013-05-11 17:30:00,
2013-05-11 10:35:00,77.6,34.6,30.37,South,181,3.0,12.0,21,0.00,,,0.00,Wunderground v.1.15,2013-05-11 17:35:00,
2013-05-11 10:45:00,77.5,34.5,30.37,SSE,154,5.0,12.0,21,0.00,,,0.00,Wunderground v.1.15,2013-05-11 17:45:00,
2013-05-11 10:50:00,77.9,34.8,30.37,SSE,156,5.0,12.0,21,0.00,,,0.00,Wunderground v.1.15,2013-05-11 17:50:00,
2013-05-11 11:00:00,78.2,35.0,30.37,SE,130,4.0,4.0,21,0.00,,,0.00,Wunderground v.1.15,2013-05-11 18:00:00,
2013-05-11 11:05:00,78.3,33.9,30.37,ESE,110,6.0,6.0,20,0.00,,,0.00,Wunderground v.1.15,2013-05-11 18:05:00,
2013-05-11 11:10:00,78.5,34.1,30.37,SSE,162,6.0,14.0,20,0.00,,,0.00,Wunderground v.1.15,2013-05-11 18:10:00,
2013-05-11 11:20:00,78.0,33.7,30.37,SSE,159,8.0,8.0,20,0.00,,,0.00,Wunderground v.1.15,2013-05-11 18:20:00,
2013-05-11 11:30:00,78.6,34.2,30.36,SSE,150,4.0,4.0,20,0.00,,,0.00,Wunderground v.1.15,2013-05-11 18:30:00,
2013-05-11 11:35:00,79.2,34.6,30.36,SE,129,3.0,9.0,20,0.00,,,0.00,Wunderground v.1.15,2013-05-11 18:35:00,
2013-05-11 11:45:00,78.9,33.1,30.37,SE,140,5.0,16.0,19,0.00,,,0.00,Wunderground v.1.15,2013-05-11 18:45:00,
2013-05-11 11:50:00,78.9,33.1,30.37,SSE,167,4.0,4.0,19,0.00,,,0.00,Wunderground v.1.15,2013-05-11 18:50:00,
2013-05-11 12:00:00,79.5,33.6,30.36,SW,222,4.0,16.0,19,0.00,,,0.00,Wunderground v.1.15,2013-05-11 19:00:00,
2013-05-11 12:05:00,80.1,32.7,30.36,South,184,5.0,16.0,18,0.00,,,0.00,Wunderground v.1.15,2013-05-11 19:05:00,
2013-05-11 12:15:00,80.2,32.8,30.36,South,185,5.0,16.0,18,0.00,,,0.00,Wunderground v.1.15,2013-05-11 19:15:00,
2013-05-11 12:20:00,80.1,32.7,30.36,South,171,6.0,6.0,18,0.00,,,0.00,Wunderground v.1.15,2013-05-11 19:20:00,
2013-05-11 12:25:00,80.4,33.0,30.36,South,186,6.0,16.0,18,0.00,,,0.00,Wunderground v.1.15,2013-05-11 19:25:00,
2013-05-11 12:30:00,80.7,31.8,30.36,SSE,164,5.0,5.0,17,0.00,,,0.00,Wunderground v.1.15,2013-05-11 19:30:00,
2013-05-11 12:35:00,80.6,31.7,30.36,SSE,167,3.0,15.0,17,0.00,,,0.00,Wunderground v.1.15,2013-05-11 19:35:00,
2013-05-11 12:45:00,80.7,31.8,30.36,SSW,210,2.0,15.0,17,0.00,,,0.00,Wunderground v.1.15,2013-05-11 19:45:00,
2013-05-11 12:50:00,81.1,32.1,30.37,SSE,151,4.0,15.0,17,0.00,,,0.00,Wunderground v.1.15,2013-05-11 19:50:00,
2013-05-11 13:00:00,81.1,32.1,30.36,South,177,6.0,6.0,17,0.00,,,0.00,Wunderground v.1.15,2013-05-11 20:00:00,
2013-05-11 13:05:00,81.0,32.1,30.36,South,179,4.0,14.0,17,0.00,,,0.00,Wunderground v.1.15,2013-05-11 20:05:00,
2013-05-11 13:15:00,81.2,32.2,30.36,ESE,115,6.0,10.0,17,0.00,,,0.00,Wunderground v.1.15,2013-05-11 20:15:00,
2013-05-11 13:20:00,81.6,31.0,30.35,NE,55,8.0,8.0,16,0.00,,,0.00,Wunderground v.1.15,2013-05-11 20:20:00,
2013-05-11 13:30:00,80.9,32.0,30.35,NE,53,4.0,4.0,17,0.00,,,0.00,Wunderground v.1.15,2013-05-11 20:30:00,
2013-05-11 13:35:00,81.8,31.2,30.35,SSE,154,2.0,13.0,16,0.00,,,0.00,Wunderground v.1.15,2013-05-11 20:35:00,
2013-05-11 13:45:00,82.5,30.2,30.34,SSE,148,7.0,14.0,15,0.00,,,0.00,Wunderground v.1.15,2013-05-11 20:45:00,
2013-05-11 13:50:00,82.0,29.8,30.34,SE,145,6.0,6.0,15,0.00,,,0.00,Wunderground v.1.15,2013-05-11 20:50:00,
2013-05-11 13:55:00,82.7,30.3,30.35,South,172,5.0,14.0,15,0.00,,,0.00,Wunderground v.1.15,2013-05-11 20:55:00,
2013-05-11 14:00:00,82.5,30.2,30.34,SSE,167,6.0,6.0,15,0.00,,,0.00,Wunderground v.1.15,2013-05-11 21:00:00,
2013-05-11 14:05:00,82.3,30.0,30.34,SSW,197,7.0,7.0,15,0.00,,,0.00,Wunderground v.1.15,2013-05-11 21:05:00,
2013-05-11 14:15:00,83.0,30.6,30.34,South,186,8.0,15.0,15,0.00,,,0.00,Wunderground v.1.15,2013-05-11 21:15:00,
2013-05-11 14:20:00,82.7,30.3,30.33,South,171,8.0,8.0,15,0.00,,,0.00,Wunderground v.1.15,2013-05-11 21:20:00,
2013-05-11 14:30:00,82.9,28.8,30.33,South,189,6.0,6.0,14,0.00,,,0.00,Wunderground v.1.15,2013-05-11 21:30:00,
2013-05-11 14:35:00,83.2,29.0,30.33,ESE,121,8.0,11.0,14,0.00,,,0.00,Wunderground v.1.15,2013-05-11 21:35:00,
2013-05-11 14:45:00,83.3,29.1,30.33,SSE,152,7.0,20.0,14,0.00,,,0.00,Wunderground v.1.15,2013-05-11 21:45:00,
2013-05-11 14:50:00,83.3,29.1,30.32,SSE,154,6.0,6.0,14,0.00,,,0.00,Wunderground v.1.15,2013-05-11 21:50:00,
2013-05-11 15:00:00,83.2,29.0,30.32,ESE,120,3.0,20.0,14,0.00,,,0.00,Wunderground v.1.15,2013-05-11 22:00:00,
2013-05-11 15:10:00,83.7,27.6,30.31,SSE,156,5.0,19.0,13,0.00,,,0.00,Wunderground v.1.15,2013-05-11 22:10:00,
2013-05-11 15:15:00,83.9,27.8,30.32,SW,217,6.0,19.0,13,0.00,,,0.00,Wunderground v.1.15,2013-05-11 22:15:00,
2013-05-11 15:20:00,83.8,27.7,30.31,SSW,204,5.0,19.0,13,0.00,,,0.00,Wunderground v.1.15,2013-05-11 22:20:00,
2013-05-11 15:30:00,83.3,27.3,30.31,SSE,167,6.0,6.0,13,0.00,,,0.00,Wunderground v.1.15,2013-05-11 22:30:00,
2013-05-11 15:35:00,83.0,28.9,30.30,SSE,148,6.0,10.0,14,0.00,,,0.00,Wunderground v.1.15,2013-05-11 22:35:00,
2013-05-11 15:45:00,83.8,27.7,30.31,SSE,147,7.0,11.0,13,0.00,,,0.00,Wunderground v.1.15,2013-05-11 22:45:00,
2013-05-11 15:50:00,83.3,27.3,30.30,SSE,155,5.0,5.0,13,0.00,,,0.00,Wunderground v.1.15,2013-05-11 22:50:00,
2013-05-11 16:00:00,82.8,28.7,30.31,SE,124,5.0,5.0,14,0.00,,,0.00,Wunderground v.1.15,2013-05-11 23:00:00,
2013-05-11 16:05:00,83.1,28.9,30.31,ESE,107,3.0,14.0,14,0.00,,,0.00,Wunderground v.1.15,2013-05-11 23:05:00,
2013-05-11 16:15:00,83.6,29.3,30.30,SE,144,4.0,14.0,14,0.00,,,0.00,Wunderground v.1.15,2013-05-11 23:15:00,
2013-05-11 16:20:00,83.8,27.7,30.30,SE,138,5.0,5.0,13,0.00,,,0.00,Wunderground v.1.15,2013-05-11 23:20:00,
2013-05-11 16:30:00,83.4,29.2,30.30,SE,134,4.0,14.0,14,0.00,,,0.00,Wunderground v.1.15,2013-05-11 23:30:00,
2013-05-11 16:40:00,83.7,29.4,30.29,South,169,2.0,13.0,14,0.00,,,0.00,Wunderground v.1.15,2013-05-11 23:40:00,
2013-05-11 16:45:00,83.7,27.6,30.30,SSW,195,5.0,13.0,13,0.00,,,0.00,Wunderground v.1.15,2013-05-11 23:45:00,
2013-05-11 16:50:00,83.8,29.5,30.29,South,179,5.0,13.0,14,0.00,,,0.00,Wunderground v.1.15,2013-05-11 23:50:00,
2013-05-11 17:00:00,84.1,27.9,30.30,South,184,6.0,6.0,13,0.00,,,0.00,Wunderground v.1.15,2013-05-12 00:00:00,
2013-05-11 17:05:00,84.1,27.9,30.30,South,181,6.0,13.0,13,0.00,,,0.00,Wunderground v.1.15,2013-05-12 00:05:00,
2013-05-11 17:15:00,84.1,27.9,30.30,South,173,5.0,13.0,13,0.00,,,0.00,Wunderground v.1.15,2013-05-12 00:15:00,
2013-05-11 17:20:00,84.2,28.0,30.29,SSE,167,4.0,13.0,13,0.00,,,0.00,Wunderground v.1.15,2013-05-12 00:20:00,
2013-05-11 17:30:00,83.5,27.5,30.28,SSE,151,7.0,13.0,13,0.00,,,0.00,Wunderground v.1.15,2013-05-12 00:30:00,
2013-05-11 17:35:00,83.6,27.5,30.29,ESE,106,7.0,14.0,13,0.00,,,0.00,Wunderground v.1.15,2013-05-12 00:35:00,
2013-05-11 17:45:00,83.9,27.8,30.28,East,79,5.0,14.0,13,0.00,,,0.00,Wunderground v.1.15,2013-05-12 00:45:00,
2013-05-11 17:50:00,83.8,27.7,30.29,SSW,194,4.0,4.0,13,0.00,,,0.00,Wunderground v.1.15,2013-05-12 00:50:00,
2013-05-11 18:00:00,83.6,27.5,30.28,South,188,2.0,14.0,13,0.00,,,0.00,Wunderground v.1.15,2013-05-12 01:00:00,
2013-05-11 18:05:00,83.6,27.5,30.28,South,188,2.0,14.0,13,0.00,,,0.00,Wunderground v.1.15,2013-05-12 01:05:00,
2013-05-11 18:15:00,83.5,27.5,30.28,SSE,165,4.0,10.0,13,0.00,,,0.00,Wunderground v.1.15,2013-05-12 01:15:00,
2013-05-11 18:20:00,83.1,25.2,30.28,SSE,158,3.0,10.0,12,0.00,,,0.00,Wunderground v.1.15,2013-05-12 01:20:00,
2013-05-11 18:30:00,83.1,27.1,30.28,ESE,121,3.0,10.0,13,0.00,,,0.00,Wunderground v.1.15,2013-05-12 01:30:00,
2013-05-11 18:35:00,82.7,26.8,30.28,SSE,152,5.0,10.0,13,0.00,,,0.00,Wunderground v.1.15,2013-05-12 01:35:00,
2013-05-11 18:40:00,82.6,26.7,30.28,SSE,152,4.0,4.0,13,0.00,,,0.00,Wunderground v.1.15,2013-05-12 01:40:00,
2013-05-11 18:45:00,82.6,26.7,30.28,SSE,152,2.0,10.0,13,0.00,,,0.00,Wunderground v.1.15,2013-05-12 01:45:00,
2013-05-11 18:55:00,82.7,26.8,30.28,SSE,152,0.0,10.0,13,0.00,,,0.00,Wunderground v.1.15,2013-05-12 01:55:00,
2013-05-11 19:00:00,82.6,26.7,30.28,SSE,152,0.0,10.0,13,0.00,,,0.00,Wunderground v.1.15,2013-05-12 02:00:00,
2013-05-11 19:05:00,82.6,26.7,30.29,SSE,152,0.0,10.0,13,0.00,,,0.00,Wunderground v.1.15,2013-05-12 02:05:00,
2013-05-11 19:15:00,82.1,26.4,30.29,SSE,152,1.0,7.0,13,0.00,,,0.00,Wunderground v.1.15,2013-05-12 02:15:00,
2013-05-11 19:20:00,82.0,26.3,30.28,SSE,152,1.0,1.0,13,0.00,,,0.00,Wunderground v.1.15,2013-05-12 02:20:00,
2013-05-11 19:30:00,81.4,25.8,30.29,SSE,148,0.0,7.0,13,0.00,,,0.00,Wunderground v.1.15,2013-05-12 02:30:00,
2013-05-11 19:35:00,81.1,27.4,30.29,SSE,148,0.0,7.0,14,0.00,,,0.00,Wunderground v.1.15,2013-05-12 02:35:00,
2013-05-11 19:40:00,80.7,27.0,30.29,SSE,148,0.0,5.0,14,0.00,,,0.00,Wunderground v.1.15,2013-05-12 02:40:00,
2013-05-11 19:50:00,79.5,29.4,30.29,SSE,149,0.0,5.0,16,0.00,,,0.00,Wunderground v.1.15,2013-05-12 02:50:00,
2013-05-11 19:55:00,78.9,28.9,30.29,SSE,149,0.0,5.0,16,0.00,,,0.00,Wunderground v.1.15,2013-05-12 02:55:00,
2013-05-11 20:00:00,78.5,28.5,30.29,SSE,149,0.0,5.0,16,0.00,,,0.00,Wunderground v.1.15,2013-05-12 03:00:00,
2013-05-11 20:10:00,77.7,29.4,30.30,SSE,149,0.0,0.0,17,0.00,,,0.00,Wunderground v.1.15,2013-05-12 03:10:00,
2013-05-11 20:15:00,77.2,29.0,30.30,SSE,149,0.0,0.0,17,0.00,,,0.00,Wunderground v.1.15,2013-05-12 03:15:00,
2013-05-11 20:20:00,76.6,29.9,30.30,SSE,159,0.0,1.0,18,0.00,,,0.00,Wunderground v.1.15,2013-05-12 03:20:00,
2013-05-11 20:30:00,75.8,29.2,30.30,South,174,2.0,2.0,18,0.00,,,0.00,Wunderground v.1.15,2013-05-12 03:30:00,
2013-05-11 20:35:00,75.6,29.1,30.30,South,179,2.0,3.0,18,0.00,,,0.00,Wunderground v.1.15,2013-05-12 03:35:00,
2013-05-11 20:45:00,75.2,28.8,30.31,South,190,3.0,3.0,18,0.00,,,0.00,Wunderground v.1.15,2013-05-12 03:45:00,
2013-05-11 20:50:00,75.1,28.7,30.31,SSW,197,3.0,3.0,18,0.00,,,0.00,Wunderground v.1.15,2013-05-12 03:50:00,
2013-05-11 21:00:00,74.1,29.2,30.31,SW,227,3.0,6.0,19,0.00,,,0.00,Wunderground v.1.15,2013-05-12 04:00:00,
2013-05-11 21:05:00,73.2,28.4,30.31,SW,232,4.0,6.0,19,0.00,,,0.00,Wunderground v.1.15,2013-05-12 04:05:00,
2013-05-11 21:10:00,73.0,28.3,30.31,WSW,237,3.0,6.0,19,0.00,,,0.00,Wunderground v.1.15,2013-05-12 04:10:00,
2013-05-11 21:15:00,73.1,28.4,30.31,WSW,237,3.0,6.0,19,0.00,,,0.00,Wunderground v.1.15,2013-05-12 04:15:00,
2013-05-11 21:20:00,72.6,27.9,30.32,WSW,257,3.0,6.0,19,0.00,,,0.00,Wunderground v.1.15,2013-05-12 04:20:00,
2013-05-11 21:25:00,71.9,27.4,30.32,West,268,5.0,8.0,19,0.00,,,0.00,Wunderground v.1.15,2013-05-12 04:25:00,
2013-05-11 21:30:00,72.6,27.9,30.32,West,262,6.0,6.0,19,0.00,,,0.00,Wunderground v.1.15,2013-05-12 04:30:00,
2013-05-11 21:35:00,73.0,27.0,30.32,West,262,6.0,10.0,18,0.00,,,0.00,Wunderground v.1.15,2013-05-12 04:35:00,
2013-05-11 21:40:00,72.8,28.1,30.32,West,261,5.0,10.0,19,0.00,,,0.00,Wunderground v.1.15,2013-05-12 04:40:00,
2013-05-11 21:50:00,72.4,27.8,30.33,West,273,6.0,10.0,19,0.00,,,0.00,Wunderground v.1.15,2013-05-12 04:50:00,
2013-05-11 22:00:00,72.7,28.0,30.33,West,266,4.0,10.0,19,0.00,,,0.00,Wunderground v.1.15,2013-05-12 05:00:00,
2013-05-11 22:05:00,72.4,27.8,30.33,West,262,4.0,10.0,19,0.00,,,0.00,Wunderground v.1.15,2013-05-12 05:05:00,
2013-05-11 22:15:00,73.2,27.1,30.33,West,269,5.0,8.0,18,0.00,,,0.00,Wunderground v.1.15,2013-05-12 05:15:00,
2013-05-11 22:20:00,72.9,28.2,30.34,West,270,3.0,8.0,19,0.00,,,0.00,Wunderground v.1.15,2013-05-12 05:20:00,
2013-05-11 22:25:00,72.6,27.9,30.34,West,270,3.0,8.0,19,0.00,,,0.00,Wunderground v.1.15,2013-05-12 05:25:00,
2013-05-11 22:35:00,71.9,28.6,30.33,West,269,3.0,7.0,20,0.00,,,0.00,Wunderground v.1.15,2013-05-12 05:35:00,
2013-05-11 22:45:00,71.3,29.3,30.33,West,269,1.0,7.0,21,0.00,,,0.00,Wunderground v.1.15,2013-05-12 05:45:00,
2013-05-11 22:50:00,71.2,29.2,30.33,West,269,0.0,7.0,21,0.00,,,0.00,Wunderground v.1.15,2013-05-12 05:50:00,
2013-05-11 23:00:00,71.4,29.4,30.33,West,269,0.0,7.0,21,0.00,,,0.00,Wunderground v.1.15,2013-05-12 06:00:00,
2013-05-11 23:05:00,71.3,30.5,30.34,West,269,0.0,7.0,22,0.00,,,0.00,Wunderground v.1.15,2013-05-12 06:05:00,
2013-05-11 23:15:00,71.1,29.2,30.34,West,269,0.0,5.0,21,0.00,,,0.00,Wunderground v.1.15,2013-05-12 06:15:00,
2013-05-11 23:20:00,71.1,30.3,30.34,West,269,0.0,5.0,22,0.00,,,0.00,Wunderground v.1.15,2013-05-12 06:20:00,
2013-05-11 23:25:00,71.2,30.4,30.33,West,269,0.0,5.0,22,0.00,,,0.00,Wunderground v.1.15,2013-05-12 06:25:00,
2013-05-11 23:30:00,71.1,30.3,30.33,West,269,0.0,5.0,22,0.00,,,0.00,Wunderground v.1.15,2013-05-12 06:30:00,
2013-05-11 23:35:00,71.1,30.3,30.33,West,269,1.0,5.0,22,0.00,,,0.00,Wunderground v.1.15,2013-05-12 06:35:00,
2013-05-11 23:45:00,70.6,31.0,30.34,West,269,0.0,4.0,23,0.00,,,0.00,Wunderground v.1.15,2013-05-12 06:45:00,
2013-05-11 23:50:00,70.7,30.0,30.34,West,269,0.0,4.0,22,0.00,,,0.00,Wunderground v.1.15,2013-05-12 06:50:00,